#timestamp,LO_Frequency,Hit,StdDev 
1598684415.1,286047003.0,N
1598684416.0,286047003.0,N
1598684435.8,286047005.0,Y
1598684455.7,286047005.5,P
1598684475.5,286047003.2,N
1598684495.3,286047001.3,N
1598684515.2,286047003.9,N
1598684535.0,286047002.9,N
1598684535.9,286047002.9,N
1598684555.8,286047001.6,N
1598684575.6,286046999.8,N
1598684595.4,286047002.0,N
1598684615.3,286047001.9,N
1598684635.1,286047003.2,N
1598684655.8,286047003.1,N
1598684675.7,286047005.8,Y
1598684695.5,286047004.0,P
1598684715.4,286047004.1,P
1598684735.2,286047003.9,P
1598684755.0,286047004.2,Y
1598684755.9,286047004.2,P
1598684775.8,286046999.0,P
1598684795.6,286046998.2,N
1598684815.5,286046998.5,N
1598684835.3,286046997.4,N
1598684855.1,286046995.0,N
1598684875.9,286046996.4,N
1598684895.7,286046995.2,N
1598684915.5,286046997.9,N
1598684935.4,286046995.9,N
1598684955.2,286046996.1,N
1598684975.1,286046996.2,N
1598684976.0,286046996.2,N
1598684995.8,286046997.0,N
1598685015.6,286046996.5,N
1598685035.5,286046997.7,N
1598685055.3,286046995.4,N
1598685075.2,286046995.5,N
1598685095.9,286046993.4,N
1598685115.7,286046993.9,N
1598685135.6,286046990.1,Y
1598685155.4,286046996.4,P
1598685175.2,286046993.4,P
1598685195.1,286046994.1,P
1598685196.0,286046994.1,Y
1598685215.8,286046998.8,P
1598685235.7,286046998.3,N
1598685255.5,286046997.3,N
1598685275.3,286046996.5,N
1598685295.2,286047000.4,N
1598685315.0,286047000.2,N
1598685315.9,286047000.2,N
1598685335.8,286047002.6,N
1598685355.6,286047001.6,N
1598685375.4,286047004.0,N
1598685395.3,286047003.0,N
1598685415.1,286047004.3,N
1598685435.8,286047003.8,N
1598685455.7,286047001.4,N
1598685475.5,286047001.5,N
1598685495.4,286046999.9,N
1598685515.2,286047000.8,N
1598685535.0,286046998.2,N
1598685535.9,286046998.2,N
1598685555.8,286046998.2,N
1598685575.6,286046999.4,N
1598685595.4,286046997.1,N
1598685615.3,286046998.0,N
1598685635.1,286046995.5,N
1598685655.9,286046995.0,N
1598685675.7,286046993.4,N
1598685695.5,286046993.7,N
1598685715.4,286046993.9,N
1598685735.2,286046994.6,N
1598685755.0,286046992.1,N
1598685755.9,286046992.1,N
1598685775.8,286046992.5,N
1598685795.6,286046991.9,N
1598685815.5,286046992.3,N
1598685835.3,286046992.6,N
1598685855.1,286046992.2,N
1598685875.9,286046991.9,N
1598685895.7,286046994.1,N
1598685915.6,286046994.8,N
1598685935.4,286046992.2,N
1598685955.2,286046993.3,N
1598685975.1,286046991.7,N
1598685976.0,286046991.7,N
1598685995.8,286046991.9,N
1598686015.6,286046990.8,Y
1598686035.5,286046995.7,P
1598686055.3,286046993.6,P
1598686075.2,286046993.7,P
1598686095.9,286046994.6,Y
1598686115.7,286046998.3,P
1598686135.6,286046998.8,N
1598686155.4,286046999.0,N
1598686175.3,286046999.2,N
1598686195.1,286046999.6,N
1598686196.0,286046999.6,N
1598686215.8,286046998.9,N
1598686235.7,286046998.7,N
1598686255.5,286046997.0,N
1598686275.3,286046999.6,N
1598686295.2,286046999.4,N
1598686315.0,286046996.7,N
1598686315.9,286046996.7,N
1598686335.8,286046997.9,N
1598686355.6,286046995.2,Y
1598686375.4,286046997.9,P
1598686395.3,286046997.1,P
1598686415.1,286046996.8,P
1598686435.9,286046997.5,Y
1598686455.7,286046999.4,P
1598686475.5,286046997.1,P
1598686495.4,286046999.4,N
1598686515.2,286046998.9,N
1598686535.0,286046996.9,Y
1598686536.0,286046996.9,P
1598686555.8,286046999.0,N
1598686575.6,286046999.2,N
1598686595.5,286046998.8,N
1598686615.3,286046998.6,N
1598686635.1,286046998.9,N
1598686655.9,286046998.8,N
1598686675.7,286046998.5,N
1598686695.6,286047000.8,N
1598686715.4,286047000.6,N
1598686735.2,286046998.7,N
1598686755.1,286047000.6,N
1598686756.0,286047000.6,N
1598686775.8,286047002.5,N
1598686795.6,286047002.7,N
1598686815.5,286047002.4,N
1598686835.3,286047002.6,N
1598686855.2,286047000.3,N
1598686875.9,286047000.8,N
1598686895.7,286046998.5,N
1598686915.6,286046998.6,N
1598686935.4,286046998.7,N
1598686955.2,286046998.6,N
1598686975.1,286046999.6,N
1598686976.0,286046999.6,N
1598686995.8,286046997.7,N
1598687015.7,286046997.4,N
1598687035.5,286046996.9,N
1598687055.3,286046997.2,N
1598687075.2,286046996.8,N
1598687095.0,286046996.9,N
1598687095.9,286046996.9,N
1598687115.8,286046998.4,N
1598687135.6,286046998.2,N
1598687155.4,286046998.8,N
1598687175.3,286046998.8,N
1598687195.1,286046998.7,N
1598687215.8,286046998.7,N
1598687235.7,286047000.8,N
1598687255.5,286047000.9,N
1598687275.4,286047002.6,N
1598687295.2,286046998.7,N
1598687315.0,286046998.3,N
1598687315.9,286046998.3,N
1598687335.8,286047000.5,N
1598687355.6,286047001.0,N
1598687375.4,286046998.1,N
1598687395.3,286047000.8,N
1598687415.1,286047001.0,N
1598687435.9,286046999.9,N
1598687455.7,286046999.7,N
1598687475.5,286047000.3,N
1598687495.4,286047002.3,N
1598687515.2,286047002.2,N
1598687535.1,286047002.8,N
1598687536.0,286047002.8,N
1598687555.8,286047002.7,N
1598687575.6,286047001.8,N
1598687595.5,286047002.0,N
1598687615.3,286047001.6,N
1598687635.2,286047002.5,N
1598687655.9,286047001.5,N
1598687675.7,286047004.3,N
1598687695.6,286047004.4,N
1598687715.4,286047001.9,N
1598687735.2,286047001.8,N
1598687755.1,286047004.3,N
1598687756.0,286047004.3,N
1598687775.8,286047001.3,N
1598687795.7,286047004.2,N
1598687815.5,286047001.5,N
1598687835.3,286047003.9,N
1598687855.2,286047004.1,N
1598687875.0,286047003.4,N
1598687875.9,286047003.4,N
1598687895.8,286047005.6,Y
1598687915.6,286047001.3,P
1598687935.4,286047001.8,P
1598687955.3,286047001.8,P
1598687975.1,286047001.4,Y
1598687995.9,286047002.6,P
